User: anonymous   Login
Location: Iesi
(43.5167°N, 13.2333°E)
Time: 13:28:21
(UTC+00:00)
Language:

Cosmos 1782 - Orbit

View from above orbital plane
View from above orbital plane
View from above satellite
View from above satellite

Ground track
Ground track

The orbit data is extracted from the following two-line orbital elements,

1 16986U 86074A   20294.78880347 +.00000014 +00000-0 -10581-5 0  9993
2 16986 082.5115 012.0881 0012278 126.1883 234.0482 15.07344796854830
Epoch (UTC): 20 October 2020 18:55:52
Eccentricity: 0.0012278
inclination: 82.5115°
perigee height: 536 km
apogee height: 553 km
right ascension of ascending node: 12.0881°
argument of perigee: 126.1883°
revolutions per day: 15.07344796
mean anomaly at epoch: 234.0482°
orbit number at epoch: 85483

The dashed part of the orbit path shows where the satellite is in the earth's shadow,  

DLR